Location: Clanezzo
(45.7500°N, 9.6000°E)
Time: 04:16:31
(UTC+00:00)

Cosmos 1709 Rocket - Pass Details

Date: 12 May 2021
Orbit: 948 x 1002 km, 82.9° (Epoch: 18 June)

Event Time Altitude Azimuth Distance (km) Brightness Sun altitude
Rises 19:42:01 0° 352° (N) 3,636 7.8 -9.4°
Reaches altitude 10° 19:44:32 10° 354° (N) 2,684 7.0 -9.8°
Maximum altitude 19:50:39 76° 80° (E) 979 3.9 -10.6°
Drops below altitude 10° 19:56:45 10° 167° (SSE) 2,667 5.8 -11.4°
Enters shadow 19:57:15 - 168° (SSE) 2,854 6.0 -11.5°
